KAZSAT 2

导读 | 星芒AI

KAZSAT 2 是哈萨克斯坦于2011年发射的第二颗通信卫星,由以色列航空航天工业公司(IAI)制造。该卫星位于东经94.8度的轨道位置,主要用于提供宽带互联网、电视广播和数据传输服务,覆盖中亚、中东和部分欧洲地区。KAZSAT 2 采用先进的通信技术,增强了哈萨克斯坦在区域通信领域的自主性和服务能力,是该国发展数字基础设施的重要组成部分。

基本信息
目录编号:
37749
目录名称:
KAZSAT 2
国际标识:
2011-035B
轨道中心:
EARTH
卫星名称:
KAZSAT 2
卫星全名:
--
卫星状态:
在轨 (已飞行5223 天)
发射日期:
2011-07-15 UTC
国别 :
(KZ)
星等 :
--
轨道信息
数据来源 国际轨道数据 AOE轨道数据
星历时间 2025-10-31T16:14:37+0800
1天前
查看轨道信息
2025-11-02T02:00:00+0800
1小时前
查看轨道信息
半长轴 42164.784km 42165.009km
偏心率 0.0001526 0.0001731
轨道倾角 0.020° 0.014°
近地点辐角 344.182° 342.404°
升交点赤经 287.627° 290.730°
平近点角 338.297° 124.701°
近地点 35780.214km 35779.575km
远地点 35793.084km 35794.173km
周期 1436.100分钟 1436.111分钟
每日圈数 1.002716 1.002708
详细信息
使用方式:
暂无
2D轨道图
3D轨道图
轨道高度分析图
轨道倾角分析图
轨道综合分析图
查看轨道综合分析图